"Pseudo-MPEC" for C603CV2

Created 2021 Sep 23 12:07:05 UT using Find_Orb

Click here for an explanation of pseudo-MPECs

 
 Astrometry: 
     C603CV2  C2021 09 18.44774504 26 49.87 +26 43 03.8    ~9IBb 20.77GVNEOCPG96
     C603CV2  C2021 09 18.45301204 26 51.74 +26 41 52.8    ~9IBb 20.73GVNEOCPG96
     C603CV2  C2021 09 18.45826804 26 53.57 +26 40 42.1    ~9IBb 20.85GVNEOCPG96
     C603CV2  C2021 09 18.46354304 26 55.47 +26 39 29.9    ~9IBb 21.09GVNEOCPG96
     C603CV2 KC2021 09 18.49108304 27 05.18 +26 33 14.9    ~9ICM 20.48GVNEOCPG96
     C603CV2 KC2021 09 18.49203904 27 05.49 +26 33 01.7    ~9ICM 21.10GVNEOCPG96
     C603CV2 KC2021 09 18.49299404 27 05.81 +26 32 48.9    ~9ICM 20.98GVNEOCPG96

Station data:
(G96) Mt. Lemmon Survey  (N32.442754 W110.788720)  US/Arizona.  Observers T.
   A. Pruyne, B. M. Africano, E. J. Christensen, G. A. Farneth, D. C. Fuls,
   A. R. Gibbs, A. D. Grauer, H. Gröller, J. A. Johnson, R. A. Kowalski, S.
   M. Larson, G. J. Leonard, D. Rankin, R. L. Seaman, F. C. Shelly. 1.5-m
   reflector + 10K CCD.

Orbital elements:  C603CV2
   Perihelion 2021 Dec 18.459938 +/- 34.0234 TT = 11:02:18 (JD 2459566.959938)
Epoch 2021 Sep 18.0 TT = JDT 2459475.5   Earth MOID: 0.0294   AutoNEOCP
M 274.44652925 +/- 56.141639        (J2000 ecliptic)
n   0.93542016 +/- 0.658996         Peri.  269.86867 +/- 61.369172
a   1.03545579 +/- 0.486304         Node   181.30920 +/- 3.4183178
e   0.0511980 +/- 0.219352          Incl.   22.49669 +/- 32.452233
P   1.05/384.85d           H 23.9   G  0.15   U 12.5  SR
q 0.98244247 +/- 0.300203    Q 1.08846911 +/- 2.6448
From 7 observations 2021 Sept. 18 (65.2 min); mean residual 0".25
Residuals in arcseconds: 
210918 G96  .00   .42-    210918 G96  .21+  .00     210918 G96  .26-  .06+    
210918 G96  .08+  .03-    210918 G96  .31+  .02-    
210918 G96  .29-  .58+    210918 G96  .05-  .17-    

Ephemerides (geocentric):
Date (UTC) HH   RA              Dec         delta   r     elong  mag " sig PA
---- -- -- --  -------------   -----------  ------ ------ -----  --- ---- ---
2021 09 23 12  04 58 04.887   +05 17 16.66  .08375 1.0293 105.8 21.0  21d  64
2021 09 23 13  04 58 19.532   +05 06 01.27  .08375 1.0293 105.8 21.0  21d  63
2021 09 23 14  04 58 34.163   +04 54 45.86  .08375 1.0292 105.7 21.0  22d  63
2021 09 23 15  04 58 48.780   +04 43 30.44  .08375 1.0292 105.7 21.0  22d  62
2021 09 23 16  04 59 03.382   +04 32 15.03  .08375 1.0291 105.7 21.0  23d  62
2021 09 23 17  04 59 17.970   +04 20 59.64  .08375 1.0291 105.7 21.0  23d  61
2021 09 23 18  04 59 32.544   +04 09 44.29  .08376 1.0291 105.7 21.0  24d  60
2021 09 23 19  04 59 47.104   +03 58 29.00  .08376 1.0290 105.6 21.0  24d  60
2021 09 23 20  05 00 01.650   +03 47 13.78  .08377 1.0290 105.6 21.0  24d  59
2021 09 23 21  05 00 16.181   +03 35 58.65  .08378 1.0290 105.6 21.0  25d  59
2021 09 23 22  05 00 30.698   +03 24 43.62  .08378 1.0289 105.6 21.0  25d  58
2021 09 23 23  05 00 45.201   +03 13 28.71  .08379 1.0289 105.6 21.0  26d  57
2021 09 24 00  05 00 59.690   +03 02 13.94  .08380 1.0289 105.6 21.0  26d  57
2021 09 24 01  05 01 14.164   +02 50 59.33  .08381 1.0288 105.5 21.0  27d  56
2021 09 24 02  05 01 28.625   +02 39 44.88  .08383 1.0288 105.5 21.0  27d  55
2021 09 24 03  05 01 43.071   +02 28 30.63  .08384 1.0287 105.5 21.0  27d  55
2021 09 24 04  05 01 57.502   +02 17 16.57  .08385 1.0287 105.5 21.0  28d  54
2021 09 24 05  05 02 11.920   +02 06 02.73  .08387 1.0287 105.4 21.0  28d  53
2021 09 24 06  05 02 26.323   +01 54 49.13  .08388 1.0286 105.4 21.0  29d  53
2021 09 24 07  05 02 40.712   +01 43 35.77  .08390 1.0286 105.4 21.0  29d  52
2021 09 24 08  05 02 55.087   +01 32 22.68  .08392 1.0286 105.4 21.0  30d  51
2021 09 24 09  05 03 09.447   +01 21 09.88  .08394 1.0285 105.4 21.0  30d  51
2021 09 24 10  05 03 23.793   +01 09 57.37  .08396 1.0285 105.3 21.0  31d  50
2021 09 24 11  05 03 38.125   +00 58 45.17  .08398 1.0285 105.3 21.0  31d  49
2021 09 24 12  05 03 52.443   +00 47 33.31  .08400 1.0284 105.3 21.1  31d  49
2021 09 24 13  05 04 06.746   +00 36 21.79  .08402 1.0284 105.3 21.1  32d  48
2021 09 24 14  05 04 21.035   +00 25 10.63  .08404 1.0284 105.2 21.1  32d  47
2021 09 24 15  05 04 35.309   +00 13 59.85  .08407 1.0283 105.2 21.1  33d  47
2021 09 24 16  05 04 49.569   +00 02 49.46  .08409 1.0283 105.2 21.1  33d  46
2021 09 24 17  05 05 03.815   -00 08 20.52  .08412 1.0282 105.2 21.1  33d  46
2021 09 24 18  05 05 18.047   -00 19 30.07  .08415 1.0282 105.1 21.1  34d  45
2021 09 24 19  05 05 32.264   -00 30 39.19  .08417 1.0282 105.1 21.1  34d  44
2021 09 24 20  05 05 46.467   -00 41 47.86  .08420 1.0281 105.1 21.1  35d  44
2021 09 24 21  05 06 00.656   -00 52 56.05  .08423 1.0281 105.1 21.1  35d  43
2021 09 24 22  05 06 14.830   -01 04 03.77  .08426 1.0281 105.0 21.1  35d  43
2021 09 24 23  05 06 28.990   -01 15 10.98  .08429 1.0280 105.0 21.1  36d  42
2021 09 25 00  05 06 43.135   -01 26 17.67  .08433 1.0280 105.0 21.1  36d  42
2021 09 25 01  05 06 57.266   -01 37 23.84  .08436 1.0280 105.0 21.1  37d  41
2021 09 25 02  05 07 11.383   -01 48 29.47  .08440 1.0279 104.9 21.1  37d  41
2021 09 25 03  05 07 25.486   -01 59 34.53  .08443 1.0279 104.9 21.1  37d  40
2021 09 25 04  05 07 39.574   -02 10 39.02  .08447 1.0278 104.9 21.1  38d  40
2021 09 25 05  05 07 53.647   -02 21 42.92  .08450 1.0278 104.9 21.1  38d  39
2021 09 25 06  05 08 07.707   -02 32 46.22  .08454 1.0278 104.8 21.1  38d  39
2021 09 25 07  05 08 21.751   -02 43 48.90  .08458 1.0277 104.8 21.1  39d  39
2021 09 25 08  05 08 35.782   -02 54 50.95  .08462 1.0277 104.8 21.1  39d  38
2021 09 25 09  05 08 49.798   -03 05 52.35  .08466 1.0277 104.8 21.1  39d  38
2021 09 25 10  05 09 03.800   -03 16 53.09  .08471 1.0276 104.7 21.1  40d  37
2021 09 25 11  05 09 17.787   -03 27 53.16  .08475 1.0276 104.7 21.1  40d  37